Location: Ertinghausen
(51.6624°N, 9.7874°E)
Time: 21:16:55
(UTC+00:00)

Cosmos 2221 Rocket - Pass Details

Date: 21 August 2024
Orbit: 617 x 644 km, 82.5° (Epoch: 17 September)

Event Time Altitude Azimuth Distance (km) Brightness Sun altitude
Rises 01:47:43 0° 349° (N) 2,970 7.7 -19.2°
Reaches altitude 10° 01:49:59 10° 349° (N) 2,053 6.8 -19.0°
Maximum altitude 01:54:33 90° 304° (NW) 649 3.6 -18.5°
Enters shadow 01:57:12 25° 171° (S) 1,300 4.8 -18.3°
